When you browse on this site, cookies collect data to enhance your experience and personalize the content and advertising you see.
Visit our Privacy Policy to learn more. By continuing to use the site, you agree to this use of cookies and data.
  • In Czech Republic
  • List of Countries
  • For 7 days
  • Water Temperature
  • Satellite Maps
  • Weather Map
  • Weather Widgets
  • user-avatar
    Login

    Hourly Weather Walnut Creek

    Today, 18 February, Monday

    Time Temperature Precipitation Wind Pressure Humidity
    00:00 +5°C° 0 mm 1 mps 753 mmHg 77%
    01:00 +4°C° 0 mm 2 mps 753 mmHg 77%
    02:00 +4°C° 0 mm 2 mps 754 mmHg 74%
    03:00 +3°C° 0 mm 2 mps 754 mmHg 71%
    04:00 +3°C° 0 mm 2 mps 754 mmHg 69%
    05:00 +4°C° 0 mm 1 mps 754 mmHg 70%
    06:00 +3°C° 0 mm 1 mps 754 mmHg 70%
    07:00 +3°C° 0 mm 1 mps 755 mmHg 71%
    08:00 +4°C° 0 mm 2 mps 755 mmHg 64%
    09:00 +5°C° 0 mm 2 mps 755 mmHg 57%
    10:00 +7°C° 0 mm 3 mps 756 mmHg 50%
    11:00 +8°C° 0 mm 3 mps 756 mmHg 45%
    12:00 +10°C° 0 mm 4 mps 755 mmHg 41%
    13:00 +11°C° 0 mm 4 mps 755 mmHg 37%
    14:00 +11°C° 0 mm 4 mps 755 mmHg 37%
    15:00 +11°C° 0 mm 4 mps 755 mmHg 38%
    16:00 +11°C° 0 mm 4 mps 755 mmHg 38%
    17:00 +10°C° 0 mm 3 mps 755 mmHg 41%
    18:00 +8°C° 0 mm 2 mps 755 mmHg 44%
    19:00 +7°C° 0 mm 2 mps 756 mmHg 47%
    20:00 +7°C° 0 mm 1 mps 756 mmHg 48%
    21:00 +7°C° 0 mm 1 mps 756 mmHg 49%
    22:00 +6°C° 0 mm 1 mps 756 mmHg 50%
    23:00 +6°C° 0 mm 1 mps 756 mmHg 52%

    Tomorrow, 19 February, Tuesday

    Time Temperature Precipitation Wind Pressure Humidity
    00:00 +5°C° 0 mm 1 mps 756 mmHg 53%
    01:00 +5°C° 0 mm 1 mps 756 mmHg 54%
    02:00 +4°C° 0 mm 1 mps 756 mmHg 58%
    03:00 +4°C° 0 mm 1 mps 756 mmHg 61%
    04:00 +4°C° 0 mm 1 mps 756 mmHg 64%
    05:00 +3°C° 0 mm 1 mps 756 mmHg 67%
    06:00 +3°C° 0 mm 1 mps 756 mmHg 69%
    07:00 +3°C° 0 mm 1 mps 756 mmHg 72%
    08:00 +4°C° 0 mm 1 mps 756 mmHg 65%
    09:00 +6°C° 0 mm 1 mps 756 mmHg 57%
    10:00 +6°C° 0 mm 2 mps 756 mmHg 50%
    11:00 +8°C° 0 mm 2 mps 756 mmHg 47%
    12:00 +9°C° 0 mm 2 mps 755 mmHg 44%
    13:00 +12°C° 0 mm 2 mps 755 mmHg 40%
    14:00 +12°C° 0 mm 2 mps 755 mmHg 41%
    15:00 +12°C° 0 mm 2 mps 754 mmHg 42%
    16:00 +13°C° 0 mm 2 mps 754 mmHg 43%
    17:00 +10°C° 0 mm 2 mps 754 mmHg 48%
    18:00 +9°C° 0 mm 2 mps 754 mmHg 54%
    19:00 +8°C° 0 mm 2 mps 754 mmHg 59%
    20:00 +7°C° 0 mm 2 mps 754 mmHg 63%
    21:00 +7°C° 0 mm 2 mps 754 mmHg 67%
    22:00 +7°C° 0 mm 1 mps 754 mmHg 70%
    23:00 +6°C° 0 mm 2 mps 753 mmHg 73%

    Day after tomorrow, 20 February, Wednesday

    Time Temperature Precipitation Wind Pressure Humidity
    00:00 +6°C° 0 mm 2 mps 753 mmHg 75%
    01:00 +5°C° 0 mm 2 mps 753 mmHg 78%
    02:00 +5°C° 0 mm 2 mps 753 mmHg 80%
    03:00 +5°C° 0 mm 2 mps 752 mmHg 81%
    04:00 +5°C° 0 mm 2 mps 752 mmHg 83%
    05:00 +4°C° 0 mm 2 mps 752 mmHg 83%
    06:00 +4°C° 0 mm 2 mps 752 mmHg 83%
    07:00 +4°C° 0 mm 2 mps 751 mmHg 83%
    08:00 +5°C° 0 mm 2 mps 751 mmHg 77%
    09:00 +6°C° 0 mm 2 mps 751 mmHg 71%
    10:00 +8°C° 0 mm 2 mps 751 mmHg 66%
    11:00 +9°C° 0 mm 3 mps 750 mmHg 61%
    12:00 +10°C° 0 mm 4 mps 749 mmHg 56%
    13:00 +12°C° 0 mm 5 mps 749 mmHg 52%
    14:00 +10°C° 0.1 mm 5 mps 748 mmHg 53%
    15:00 +10°C° 0.1 mm 5 mps 747 mmHg 54%
    16:00 +10°C° 0.1 mm 5 mps 746 mmHg 56%
    17:00 +9°C° 0.2 mm 5 mps 746 mmHg 59%
    18:00 +8°C° 0.2 mm 4 mps 746 mmHg 63%
    19:00 +7°C° 0.2 mm 4 mps 746 mmHg 66%
    20:00 +7°C° 0.1 mm 3 mps 746 mmHg 67%
    21:00 +7°C° 0.1 mm 3 mps 746 mmHg 68%
    22:00 +5°C° 0.1 mm 3 mps 746 mmHg 68%
    23:00 +5°C° 0 mm 3 mps 745 mmHg 69%

    21 February, Thursday

    Time Temperature Precipitation Wind Pressure Humidity
    00:00 +5°C° 0 mm 2 mps 745 mmHg 70%
    01:00 +5°C° 0 mm 2 mps 745 mmHg 71%
    02:00 +4°C° 0 mm 2 mps 745 mmHg 72%
    03:00 +4°C° 0 mm 2 mps 744 mmHg 73%
    04:00 +3°C° 0 mm 2 mps 744 mmHg 74%
    05:00 +3°C° 0 mm 2 mps 744 mmHg 74%
    06:00 +3°C° 0 mm 2 mps 744 mmHg 75%
    07:00 +2°C° 0 mm 2 mps 744 mmHg 75%
    08:00 +4°C° 0 mm 2 mps 745 mmHg 67%
    09:00 +5°C° 0 mm 3 mps 745 mmHg 59%
    10:00 +6°C° 0 mm 4 mps 745 mmHg 52%
    11:00 +7°C° 0 mm 4 mps 745 mmHg 46%
    12:00 +9°C° 0 mm 5 mps 744 mmHg 41%
    13:00 +10°C° 0 mm 5 mps 744 mmHg 36%
    14:00 +10°C° 0 mm 6 mps 744 mmHg 36%
    15:00 +10°C° 0 mm 6 mps 744 mmHg 37%
    16:00 +9°C° 0 mm 7 mps 744 mmHg 37%
    17:00 +8°C° 0 mm 6 mps 744 mmHg 40%
    18:00 +7°C° 0 mm 6 mps 745 mmHg 44%
    19:00 +5°C° 0 mm 6 mps 745 mmHg 47%
    20:00 +4°C° 0 mm 6 mps 746 mmHg 47%
    21:00 +4°C° 0 mm 6 mps 747 mmHg 47%
    22:00 +4°C° 0 mm 6 mps 747 mmHg 47%
    23:00 +3°C° 0 mm 5 mps 748 mmHg 48%

    22 February, Friday

    Time Temperature Precipitation Wind Pressure Humidity
    00:00 +4°C° 0 mm 4 mps 748 mmHg 48%
    01:00 +3°C° 0 mm 4 mps 749 mmHg 49%
    02:00 +3°C° 0 mm 3 mps 749 mmHg 50%
    03:00 +3°C° 0 mm 3 mps 750 mmHg 51%
    04:00 +3°C° 0 mm 2 mps 750 mmHg 52%
    05:00 +3°C° 0 mm 2 mps 750 mmHg 54%
    06:00 +3°C° 0 mm 1 mps 751 mmHg 55%
    07:00 +3°C° 0 mm 1 mps 751 mmHg 57%
    08:00 +4°C° 0 mm 1 mps 752 mmHg 51%
    09:00 +6°C° 0 mm 1 mps 752 mmHg 46%
    10:00 +7°C° 0 mm 2 mps 753 mmHg 41%
    11:00 +10°C° 0 mm 1 mps 753 mmHg 38%
    12:00 +11°C° 0 mm 1 mps 753 mmHg 35%
    13:00 +13°C° 0 mm 1 mps 753 mmHg 32%
    14:00 +13°C° 0 mm 1 mps 752 mmHg 32%
    15:00 +13°C° 0 mm 1 mps 752 mmHg 32%
    16:00 +13°C° 0 mm 2 mps 752 mmHg 33%
    17:00 +12°C° 0 mm 2 mps 752 mmHg 39%
    18:00 +9°C° 0 mm 2 mps 753 mmHg 45%
    19:00 +7°C° 0 mm 2 mps 753 mmHg 51%
    20:00 +8°C° 0 mm 1 mps 753 mmHg 55%
    21:00 +7°C° 0 mm 1 mps 754 mmHg 58%
    22:00 +7°C° 0 mm 1 mps 754 mmHg 62%
    23:00 +7°C° 0 mm 1 mps 754 mmHg 63%

    23 February, Saturday

    Time Temperature Precipitation Wind Pressure Humidity
    00:00 +6°C° 0 mm 1 mps 754 mmHg 65%
    01:00 +6°C° 0 mm 1 mps 754 mmHg 66%
    02:00 +6°C° 0 mm 1 mps 754 mmHg 68%
    03:00 +5°C° 0 mm 1 mps 754 mmHg 70%
    04:00 +5°C° 0 mm 1 mps 755 mmHg 71%
    05:00 +5°C° 0 mm 1 mps 755 mmHg 74%
    06:00 +5°C° 0 mm 1 mps 755 mmHg 77%
    07:00 +5°C° 0 mm 1 mps 755 mmHg 80%
    08:00 +7°C° 0 mm 1 mps 756 mmHg 75%
    09:00 +8°C° 0 mm 1 mps 756 mmHg 70%
    10:00 +10°C° 0 mm 1 mps 756 mmHg 65%
    11:00 +10°C° 0 mm 2 mps 756 mmHg 60%
    12:00 +12°C° 0 mm 2 mps 755 mmHg 56%
    13:00 +13°C° 0 mm 3 mps 755 mmHg 51%
    14:00 +12°C° 0.1 mm 3 mps 755 mmHg 56%
    15:00 +12°C° 0.1 mm 4 mps 754 mmHg 60%
    16:00 +11°C° 0.1 mm 4 mps 754 mmHg 64%
    17:00 +10°C° 0.1 mm 4 mps 754 mmHg 69%
    18:00 +8°C° 0.1 mm 4 mps 754 mmHg 73%
    19:00 +9°C° 0.1 mm 3 mps 754 mmHg 77%
    20:00 +8°C° 0 mm 3 mps 754 mmHg 77%
    21:00 +7°C° 0 mm 3 mps 754 mmHg 77%
    22:00 +7°C° 0 mm 3 mps 754 mmHg 77%
    23:00 +7°C° 0 mm 3 mps 754 mmHg 77%
    Show more